Погода в Дубовичах

Украина / Сумская область     51°38′13″N   33°35′00″E
темп.,
°C
ветер,
м/с
пор.,
м/с
влажн.,
%
обл.,
%
осадки,
мм/ч
давл.,
гПа
погр.,
м
14 апреля, ср
ср1400:00+10ю378954 0.4 1019260
03:00+8ююв359215 0.4 101991
06:00+8юв369289 0.0 1019131
09:00+10ююв4683100 0.0 1018323
12:00+13ююв3466100 0.1 10181041
15:00+14юв3356100 0.3 10161224
18:00+11юв4779100 0.3 1016314
21:00+10ююв2381100 0.3 101568
15 апреля, чт
чт1500:00+9вюв2287100 0.0 101415
03:00+9ю1190100 0.1 101323
06:00+9юв119098 0.0 101312
09:00+10вюв228524 0.3 1013214
12:00+14ююз5656100 0.3 10121496
15:00+15ю455071 0.6 10111656
18:00+14ююв2457100 0.5 1011695
21:00+10юв488092 0.8 1012252
16 апреля, пт
пт1600:00+9вюв4884100 0.1 1012360
03:00+7вюв369368 0.1 1012116
06:00+8вюв268763 0.0 1012193
09:00+9юв577937 0.1 1013561
12:00+11юв6865100 0.2 10141471
15:00+10юв786737 0.4 10151127
18:00+11юв476443 0.1 10161185
21:00+8юв3782100 0.1 1017248
17 апреля, сб
сб1700:00+8вюв2583100 0.1 1018168
03:00+7юв249096 0.2 1018132
06:00+6в1193100 0.0 101910
09:00+9с1178100 0.0 1020355
12:00+10зсз3476100 0.4 1019608
15:00+9з3594100 7.2 1018393
18:00+10сз3697100 4.3 1017264
21:00+8всв51191100 4.5 1018429
18 апреля, вс
вс1800:00+7всв5128967 0.0 1018503
03:00+7всв6138993 0.0 1019574
06:00+6в71289100 0.0 1020607
09:00+8вюв7117931 0.0 1021765
12:00+12вюв576098 0.0 10221481
15:00+13в345683 0.1 10221514
18:00+11ссв4767100 0.3 1023449
21:00+8всв5118620 0.4 1024328